�������l�o���
Date,Time,MP-1(��Sv/h),MP-2(��Sv/h),MP-3(��Sv/h),MP-4(��Sv/h),MP-5(��Sv/h),MP-6(��Sv/h),MP-7(��Sv/h),MP-8(��Sv/h),����,����(m/s),���J
2022/11/09,00:00,0.589,0.841,0.531,1.073,0.753,0.340,0.600,0.562,���k��,2.6,��
2022/11/09,00:10,0.589,0.840,0.532,1.071,0.753,0.338,0.598,0.562,���k��,1.7,��
2022/11/09,00:20,0.589,0.841,0.531,1.072,0.753,0.338,0.598,0.561,���k��,1.5,��
2022/11/09,00:30,0.588,0.841,0.531,1.074,0.753,0.338,0.598,0.562,���k��,2.9,��
2022/11/09,00:40,0.590,0.839,0.532,1.072,0.752,0.340,0.597,0.562,���k��,3.2,��
2022/11/09,00:50,0.589,0.840,0.531,1.069,0.753,0.337,0.598,0.562,���k��,2.3,��
2022/11/09,01:00,0.591,0.841,0.531,1.068,0.751,0.337,0.598,0.563,��,1.7,��
2022/11/09,01:10,0.589,0.841,0.530,1.071,0.751,0.339,0.597,0.560,��,1.4,��
2022/11/09,01:20,0.589,0.842,0.530,1.070,0.752,0.338,0.598,0.563,��,1.1,��
2022/11/09,01:30,0.588,0.841,0.530,1.069,0.752,0.338,0.598,0.562,�쐼,1.2,��
2022/11/09,01:40,0.590,0.841,0.532,1.070,0.751,0.339,0.597,0.560,���쐼,0.9,��
2022/11/09,01:50,0.590,0.839,0.531,1.069,0.752,0.339,0.599,0.562,���쐼,0.6,��
2022/11/09,02:00,0.588,0.839,0.530,1.070,0.753,0.338,0.598,0.562,���쐼,0.8,��
2022/11/09,02:10,0.589,0.840,0.531,1.071,0.752,0.339,0.597,0.561,��쐼,1.2,��
2022/11/09,02:20,0.586,0.839,0.530,1.071,0.751,0.338,0.597,0.562,��,0.6,��
2022/11/09,02:30,0.587,0.841,0.531,1.071,0.753,0.339,0.597,0.561,-,CALM,��
2022/11/09,02:40,0.589,0.840,0.530,1.069,0.752,0.338,0.598,0.562,-,CALM,��
2022/11/09,02:50,0.589,0.839,0.530,1.071,0.753,0.337,0.596,0.561,-,CALM,��
2022/11/09,03:00,0.590,0.838,0.531,1.072,0.753,0.337,0.596,0.562,���쐼,0.6,��
2022/11/09,03:10,0.588,0.841,0.532,1.071,0.754,0.339,0.597,0.563,��,0.8,��
2022/11/09,03:20,0.589,0.841,0.530,1.070,0.753,0.339,0.598,0.563,��,0.6,��
2022/11/09,03:30,0.588,0.843,0.531,1.071,0.751,0.339,0.597,0.561,���k��,1.4,��
2022/11/09,03:40,0.590,0.841,0.530,1.069,0.752,0.339,0.596,0.561,�k�k��,0.8,��
2022/11/09,03:50,0.587,0.840,0.531,1.071,0.751,0.339,0.596,0.561,�k��,1.2,��
2022/11/09,04:00,0.589,0.840,0.529,1.070,0.752,0.338,0.596,0.562,�k��,2.9,��
2022/11/09,04:10,0.587,0.840,0.530,1.071,0.754,0.338,0.596,0.562,�k��,2.6,��
2022/11/09,04:20,0.588,0.840,0.531,1.070,0.751,0.338,0.597,0.562,�k��,1.7,��
2022/11/09,04:30,0.589,0.840,0.532,1.071,0.752,0.339,0.598,0.562,���k��,2.0,��
2022/11/09,04:40,0.589,0.840,0.530,1.070,0.751,0.339,0.597,0.563,���k��,2.0,��
2022/11/09,04:50,0.588,0.839,0.530,1.069,0.753,0.338,0.598,0.562,��,3.9,��
2022/11/09,05:00,0.589,0.837,0.531,1.069,0.753,0.338,0.597,0.563,���k��,4.7,��
2022/11/09,05:10,0.588,0.842,0.530,1.072,0.752,0.338,0.597,0.562,���k��,4.4,��
2022/11/09,05:20,0.589,0.838,0.531,1.071,0.752,0.338,0.597,0.563,���k��,3.8,��
2022/11/09,05:30,0.586,0.839,0.530,1.069,0.750,0.338,0.599,0.562,���k��,3.0,��
2022/11/09,05:40,0.588,0.841,0.531,1.071,0.751,0.338,0.597,0.561,���k��,3.7,��
2022/11/09,05:50,0.588,0.838,0.531,1.070,0.752,0.338,0.598,0.561,���k��,3.6,��
2022/11/09,06:00,0.589,0.840,0.530,1.071,0.751,0.339,0.597,0.561,��,3.7,��
2022/11/09,06:10,0.588,0.839,0.531,1.071,0.752,0.338,0.597,0.561,��,3.9,��
2022/11/09,06:20,0.589,0.841,0.531,1.068,0.751,0.337,0.598,0.563,��,3.2,��
2022/11/09,06:30,0.588,0.840,0.529,1.069,0.752,0.339,0.597,0.561,��,3.6,��
2022/11/09,06:40,0.589,0.839,0.533,1.068,0.751,0.338,0.596,0.563,���쐼,3.1,��
2022/11/09,06:50,0.588,0.840,0.530,1.070,0.752,0.338,0.598,0.562,��,3.5,��
2022/11/09,07:00,0.587,0.839,0.530,1.070,0.750,0.339,0.598,0.563,��,3.9,��
2022/11/09,07:10,0.587,0.840,0.532,1.071,0.751,0.338,0.596,0.562,��,3.1,��
2022/11/09,07:20,0.587,0.839,0.530,1.071,0.752,0.338,0.596,0.563,��,3.4,��
2022/11/09,07:30,0.589,0.842,0.530,1.072,0.750,0.338,0.597,0.562,���k��,4.1,��
2022/11/09,07:40,0.588,0.840,0.530,1.072,0.751,0.337,0.597,0.562,���k��,4.5,��
2022/11/09,07:50,0.589,0.840,0.531,1.070,0.750,0.339,0.598,0.561,���k��,4.3,��
2022/11/09,08:00,0.589,0.840,0.532,1.072,0.752,0.337,0.599,0.563,���k��,4.4,��
2022/11/09,08:10,0.590,0.839,0.531,1.073,0.750,0.338,0.599,0.562,���k��,4.0,��
2022/11/09,08:20,0.589,0.839,0.530,1.072,0.751,0.338,0.599,0.562,��,3.5,��
2022/11/09,08:30,0.591,0.836,0.533,1.069,0.749,0.337,0.599,0.561,���k��,3.6,��
2022/11/09,08:40,0.588,0.836,0.531,1.071,0.753,0.338,0.599,0.561,��,2.2,��
2022/11/09,08:50,0.591,0.834,0.533,1.072,0.755,0.339,0.599,0.562,��,2.3,��
2022/11/09,09:00,0.589,0.824,0.531,1.073,0.751,0.340,0.598,0.563,��,2.3,��
2022/11/09,09:10,0.591,0.814,0.530,1.070,0.751,0.339,0.597,0.562,���k��,2.8,��
2022/11/09,09:20,0.590,0.806,0.531,1.073,0.750,0.340,0.597,0.563,���k��,1.9,��
2022/11/09,09:30,0.589,0.821,0.532,1.070,0.753,0.339,0.596,0.563,��,1.5,��
2022/11/09,09:40,0.589,0.815,0.529,1.072,0.752,0.340,0.595,0.562,�k��,2.0,��
2022/11/09,09:50,0.589,0.824,0.531,1.073,0.752,0.340,0.598,0.562,��,1.4,��
2022/11/09,10:00,0.588,0.833,0.532,1.072,0.752,0.339,0.597,0.563,��,1.9,��
2022/11/09,10:10,0.588,0.838,0.532,1.072,0.749,0.338,0.597,0.564,��,1.9,��
2022/11/09,10:20,0.590,0.832,0.532,1.071,0.752,0.338,0.597,0.565,��쓌,2.0,��
2022/11/09,10:30,0.590,0.833,0.532,1.075,0.752,0.337,0.598,0.563,���쓌,2.3,��
2022/11/09,10:40,0.591,0.834,0.532,1.072,0.752,0.338,0.596,0.563,���k��,1.5,��
2022/11/09,10:50,0.590,0.847,0.530,1.071,0.751,0.337,0.597,0.562,��쓌,1.7,��
2022/11/09,11:00,0.590,0.852,0.531,1.072,0.752,0.337,0.596,0.564,-,CALM,��
2022/11/09,11:10,0.590,0.851,0.531,1.072,0.750,0.338,0.597,0.564,�쓌,0.6,��
2022/11/09,11:20,0.591,0.849,0.532,1.073,0.753,0.337,0.599,0.562,�k��,2.0,��
2022/11/09,11:30,0.589,0.847,0.530,1.071,0.752,0.337,0.598,0.563,���k��,3.8,��
2022/11/09,11:40,0.590,0.842,0.530,1.072,0.754,0.338,0.599,0.564,��,2.0,��
2022/11/09,11:50,0.591,0.844,0.530,1.073,0.752,0.337,0.597,0.564,��,2.6,��
2022/11/09,12:00,0.590,0.845,0.530,1.073,0.753,0.338,0.597,0.563,�쐼,2.0,��
2022/11/09,12:10,0.589,0.852,0.530,1.075,0.752,0.339,0.598,0.561,�쓌,1.5,��
2022/11/09,12:20,0.593,0.851,0.532,1.075,0.751,0.340,0.597,0.561,�쓌,1.9,��
2022/11/09,12:30,0.591,0.852,0.533,1.072,0.753,0.340,0.597,0.561,�쓌,1.5,��
2022/11/09,12:40,0.590,0.853,0.532,1.075,0.753,0.339,0.597,0.562,��,2.6,��
2022/11/09,12:50,0.592,0.853,0.532,1.072,0.755,0.339,0.598,0.561,�k��,1.5,��
2022/11/09,13:00,0.591,0.852,0.531,1.073,0.753,0.338,0.598,0.561,���k��,4.0,��
2022/11/09,13:10,0.593,0.852,0.531,1.072,0.755,0.338,0.597,0.561,��,3.3,��
2022/11/09,13:20,0.591,0.851,0.532,1.074,0.751,0.336,0.598,0.560,��,2.2,��
2022/11/09,13:30,0.592,0.853,0.534,1.074,0.753,0.339,0.599,0.561,��,1.4,��
2022/11/09,13:40,0.592,0.851,0.533,1.073,0.753,0.338,0.598,0.562,��쐼,1.2,��
2022/11/09,13:50,0.592,0.852,0.532,1.073,0.753,0.338,0.596,0.562,��,1.7,��
2022/11/09,14:00,0.591,0.853,0.530,1.076,0.753,0.337,0.597,0.561,��쓌,2.2,��
2022/11/09,14:10,0.591,0.851,0.533,1.073,0.752,0.337,0.597,0.562,��쓌,3.2,��
2022/11/09,14:20,0.592,0.852,0.532,1.074,0.752,0.338,0.597,0.562,�쓌,3.0,��
2022/11/09,14:30,0.590,0.851,0.532,1.073,0.755,0.339,0.596,0.561,��쓌,2.3,��
2022/11/09,14:40,0.593,0.850,0.531,1.074,0.753,0.338,0.596,0.563,���쓌,2.6,��
2022/11/09,14:50,0.591,0.851,0.531,1.072,0.754,0.338,0.599,0.561,�쓌,3.8,��
2022/11/09,15:00,0.591,0.849,0.531,1.074,0.754,0.337,0.598,0.561,�쓌,5.2,��
2022/11/09,15:10,0.591,0.852,0.531,1.073,0.754,0.337,0.599,0.560,���쓌,3.7,��
2022/11/09,15:20,0.590,0.852,0.532,1.073,0.753,0.338,0.600,0.560,���쓌,2.5,��
2022/11/09,15:30,0.591,0.852,0.530,1.074,0.753,0.338,0.600,0.561,�쓌,2.0,��
2022/11/09,15:40,0.592,0.851,0.532,1.073,0.753,0.339,0.599,0.562,���쓌,2.8,��
2022/11/09,15:50,0.590,0.852,0.533,1.074,0.753,0.340,0.599,0.563,��쓌,0.9,��
2022/11/09,16:00,0.590,0.852,0.531,1.075,0.753,0.340,0.599,0.563,-,CALM,��
2022/11/09,16:10,0.591,0.853,0.531,1.076,0.751,0.339,0.598,0.564,���쐼,2.3,��
2022/11/09,16:20,0.589,0.857,0.532,1.072,0.753,0.339,0.599,0.564,���쐼,1.5,��
2022/11/09,16:30,0.588,0.856,0.529,1.070,0.753,0.339,0.597,0.563,��,2.2,��
2022/11/09,16:40,0.590,0.854,0.532,1.074,0.753,0.340,0.598,0.564,��,2.5,��
2022/11/09,16:50,0.590,0.855,0.536,1.074,0.750,0.340,0.598,0.562,���쐼,2.5,��
2022/11/09,17:00,0.592,0.858,0.531,1.073,0.755,0.340,0.598,0.563,��,3.0,��
2022/11/09,17:10,0.591,0.858,0.534,1.073,0.755,0.340,0.599,0.562,���쐼,3.6,��
2022/11/09,17:20,0.591,0.855,0.534,1.073,0.754,0.339,0.597,0.564,��,3.6,��
2022/11/09,17:30,0.590,0.856,0.534,1.074,0.752,0.338,0.599,0.563,���k��,3.0,��
2022/11/09,17:40,0.591,0.857,0.531,1.073,0.754,0.339,0.599,0.563,���k��,4.5,��
2022/11/09,17:50,0.593,0.855,0.533,1.072,0.755,0.339,0.598,0.562,���k��,4.9,��
2022/11/09,18:00,0.590,0.856,0.532,1.072,0.755,0.339,0.598,0.563,���k��,4.1,��
2022/11/09,18:10,0.590,0.855,0.532,1.069,0.755,0.339,0.599,0.562,���k��,2.9,��
2022/11/09,18:20,0.589,0.854,0.531,1.074,0.755,0.338,0.597,0.563,��,2.9,��
2022/11/09,18:30,0.591,0.855,0.533,1.074,0.756,0.338,0.598,0.562,��,3.8,��
2022/11/09,18:40,0.590,0.854,0.532,1.074,0.755,0.339,0.598,0.562,��,4.5,��
2022/11/09,18:50,0.592,0.853,0.532,1.075,0.755,0.340,0.599,0.561,��,3.8,��
2022/11/09,19:00,0.589,0.855,0.532,1.072,0.753,0.339,0.597,0.561,��,5.0,��
2022/11/09,19:10,0.590,0.855,0.533,1.074,0.755,0.337,0.598,0.562,��,5.6,��
2022/11/09,19:20,0.591,0.854,0.534,1.072,0.754,0.340,0.598,0.562,��,5.5,��
2022/11/09,19:30,0.591,0.853,0.533,1.073,0.756,0.341,0.599,0.563,���쐼,5.3,��
2022/11/09,19:40,0.591,0.853,0.532,1.074,0.755,0.339,0.598,0.562,��,4.7,��
2022/11/09,19:50,0.589,0.853,0.533,1.074,0.752,0.337,0.597,0.562,���쐼,5.3,��
2022/11/09,20:00,0.590,0.852,0.533,1.073,0.755,0.340,0.598,0.562,���쐼,4.0,��
2022/11/09,20:10,0.590,0.855,0.533,1.075,0.754,0.340,0.599,0.563,���쐼,4.5,��
2022/11/09,20:20,0.591,0.854,0.533,1.071,0.755,0.340,0.598,0.563,��,5.0,��
2022/11/09,20:30,0.592,0.854,0.532,1.074,0.754,0.339,0.598,0.564,���쐼,4.2,��
2022/11/09,20:40,0.591,0.853,0.532,1.074,0.756,0.339,0.597,0.562,��,5.8,��
2022/11/09,20:50,0.588,0.854,0.531,1.072,0.755,0.339,0.597,0.561,���쐼,5.6,��
2022/11/09,21:00,0.590,0.855,0.532,1.075,0.752,0.339,0.597,0.562,��,5.6,��
2022/11/09,21:10,0.590,0.855,0.530,1.073,0.755,0.338,0.598,0.564,���쐼,5.7,��
2022/11/09,21:20,0.588,0.854,0.534,1.070,0.753,0.339,0.598,0.561,���쐼,5.3,��
2022/11/09,21:30,0.590,0.854,0.533,1.073,0.755,0.338,0.598,0.562,���쐼,5.1,��
2022/11/09,21:40,0.589,0.853,0.532,1.074,0.755,0.339,0.597,0.562,���쐼,4.2,��
2022/11/09,21:50,0.591,0.854,0.532,1.072,0.753,0.338,0.596,0.563,���쐼,3.7,��
2022/11/09,22:00,0.586,0.853,0.534,1.073,0.755,0.338,0.596,0.562,�쐼,4.0,��
2022/11/09,22:10,0.590,0.853,0.533,1.073,0.753,0.339,0.597,0.561,�쐼,4.4,��
2022/11/09,22:20,0.592,0.852,0.532,1.073,0.754,0.338,0.597,0.564,�쐼,4.6,��
2022/11/09,22:30,0.590,0.851,0.533,1.074,0.754,0.337,0.596,0.563,�쐼,4.1,��
2022/11/09,22:40,0.589,0.855,0.533,1.072,0.753,0.340,0.598,0.563,�쐼,4.2,��
2022/11/09,22:50,0.589,0.852,0.530,1.074,0.755,0.338,0.599,0.562,��쐼,3.6,��
2022/11/09,23:00,0.590,0.852,0.533,1.073,0.754,0.339,0.598,0.563,��쐼,3.8,��
2022/11/09,23:10,0.590,0.853,0.533,1.074,0.754,0.339,0.598,0.561,��쐼,5.1,��
2022/11/09,23:20,0.589,0.852,0.533,1.072,0.754,0.339,0.598,0.562,��쐼,5.3,��
2022/11/09,23:30,0.590,0.852,0.532,1.073,0.755,0.338,0.598,0.565,��쐼,4.6,��
2022/11/09,23:40,0.590,0.853,0.531,1.072,0.754,0.340,0.598,0.562,��쐼,4.0,��
2022/11/09,23:50,0.590,0.853,0.531,1.071,0.753,0.338,0.598,0.563,��쐼,4.4,��
